| time (UTC) | temp F | wind direction | speed knots | gust knots | rain 1hr in | rain 24hr in | rain mn in | humidity % | barometer mb |
| 20260502210420 | 55 | 304 | 4.3 | 9.6 | 0.00 | 0.00 | 0.00 | 45 | 1013.2 |
| 20260502205920 | 56 | 321 | 5.2 | 9.6 | 0.00 | 0.00 | 0.00 | 43 | 1012.9 |
| 20260502205419 | 55 | 76 | 0.9 | 2.6 | 0.00 | 0.00 | 0.00 | 46 | 1012.5 |
| 20260502204919 | 54 | 316 | 5.2 | 7.0 | 0.00 | 0.00 | 0.00 | 44 | 1012.5 |
| 20260502204419 | 54 | 303 | 7.0 | 9.6 | 0.00 | 0.00 | 0.00 | 44 | 1013.0 |
| 20260502203908 | 54 | 314 | 4.3 | 5.2 | 0.00 | 0.00 | 0.00 | 44 | 1013.0 |
| 20260502203418 | 54 | 310 | 5.2 | 7.8 | 0.00 | 0.00 | 0.00 | 44 | 1013.0 |
| 20260502202917 | 55 | 312 | 3.5 | 7.0 | 0.00 | 0.00 | 0.00 | 45 | 1013.0 |
| 20260502202417 | 55 | 296 | 3.5 | 7.0 | 0.00 | 0.00 | 0.00 | 45 | 1013.1 |
| 20260502201917 | 55 | 3 | 3.5 | 5.2 | 0.00 | 0.00 | 0.00 | 46 | 1012.7 |
| 20260502201416 | 55 | 315 | 6.1 | 7.8 | 0.00 | 0.00 | 0.00 | 43 | 1012.7 |
| 20260502200916 | 55 | 311 | 5.2 | 7.8 | 0.00 | 0.00 | 0.00 | 43 | 1013.0 |
| 20260502200416 | 55 | 337 | 3.5 | 6.1 | 0.00 | 0.00 | 0.00 | 46 | 1013.0 |
| 20260502195915 | 55 | 336 | 3.5 | 5.2 | 0.00 | 0.00 | 0.00 | 45 | 1013.0 |
| 20260502195415 | 55 | 349 | 3.5 | 7.8 | 0.00 | 0.00 | 0.00 | 44 | 1012.5 |
| 20260502194914 | 54 | 314 | 2.6 | 5.2 | 0.00 | 0.00 | 0.00 | 46 | 1013.0 |
| 20260502194414 | 54 | 305 | 5.2 | 9.6 | 0.00 | 0.00 | 0.00 | 44 | 1013.0 |
| 20260502193914 | 54 | 48 | 5.2 | 9.6 | 0.00 | 0.00 | 0.00 | 44 | 1013.0 |
| 20260502193413 | 54 | 31 | 3.5 | 6.1 | 0.00 | 0.00 | 0.00 | 44 | 1013.1 |
| 20260502192912 | 54 | 305 | 3.5 | 9.6 | 0.00 | 0.00 | 0.00 | 45 | 1013.1 |
| 20260502192412 | 54 | 12 | 3.5 | 6.1 | 0.00 | 0.00 | 0.00 | 45 | 1013.1 |
| 20260502191912 | 55 | 50 | 3.5 | 5.2 | 0.00 | 0.00 | 0.00 | 46 | 1013.2 |
| 20260502191411 | 56 | 9 | 3.5 | 6.1 | 0.00 | 0.00 | 0.00 | 43 | 1013.0 |
| 20260502190911 | 57 | 338 | 3.5 | 7.0 | 0.00 | 0.00 | 0.00 | 44 | 1012.8 |
| 20260502190411 | 58 | 296 | 4.3 | 9.6 | 0.00 | 0.00 | 0.00 | 42 | 1013.0 |
| 20260502185901 | 57 | 31 | 3.5 | 7.8 | 0.00 | 0.00 | 0.00 | 44 | 1012.7 |
| 20260502185410 | 57 | 36 | 1.7 | 3.5 | 0.00 | 0.00 | 0.00 | 45 | 1012.7 |
| 20260502184910 | 57 | 349 | 4.3 | 8.7 | 0.00 | 0.00 | 0.00 | 43 | 1013.0 |
| 20260502184409 | 58 | 26 | 4.3 | 7.8 | 0.00 | 0.00 | 0.00 | 43 | 1012.7 |
| 20260502183909 | 57 | 44 | 5.2 | 9.6 | 0.00 | 0.00 | 0.00 | 42 | 1012.4 |
| 20260502183409 | 57 | 0 | 2.6 | 5.2 | 0.00 | 0.00 | 0.00 | 44 | 1012.8 |
| 20260502182908 | 57 | 13 | 2.6 | 5.2 | 0.00 | 0.00 | 0.00 | 43 | 1013.0 |
| 20260502182408 | 56 | 2 | 1.7 | 5.2 | 0.00 | 0.00 | 0.00 | 44 | 1012.5 |
| 20260502181908 | 56 | 86 | 2.6 | 4.3 | 0.00 | 0.00 | 0.00 | 44 | 1013.2 |
| 20260502181408 | 56 | 22 | 5.2 | 7.8 | 0.00 | 0.00 | 0.00 | 43 | 1012.9 |
| 20260502180907 | 56 | 42 | 6.1 | 7.8 | 0.00 | 0.00 | 0.00 | 43 | 1012.9 |
| 20260502180407 | 56 | 6 | 3.5 | 6.1 | 0.00 | 0.00 | 0.00 | 46 | 1012.9 |
| 20260502170402 | 53 | 77 | 1.7 | 3.5 | 0.00 | 0.00 | 0.00 | 48 | 1013.6 |
| 20260502163900 | 53 | 296 | 5.2 | 7.8 | 0.00 | 0.00 | 0.00 | 49 | 1014.0 |
| 20260502163400 | 53 | 310 | 2.6 | 7.8 | 0.00 | 0.00 | 0.00 | 50 | 1014.0 |
| 20260502162859 | 53 | 341 | 3.5 | 6.1 | 0.00 | 0.00 | 0.00 | 51 | 1014.1 |
| 20260502162359 | 52 | 56 | 1.7 | 3.5 | 0.00 | 0.00 | 0.00 | 50 | 1014.3 |
| 20260502161858 | 52 | 61 | 1.7 | 3.5 | 0.00 | 0.00 | 0.00 | 50 | 1014.4 |
| 20260502161348 | 52 | 25 | 3.5 | 6.1 | 0.00 | 0.00 | 0.00 | 50 | 1014.4 |
| 20260502160848 | 52 | 308 | 4.3 | 7.8 | 0.00 | 0.00 | 0.00 | 51 | 1014.6 |
| 20260502160348 | 52 | 32 | 4.3 | 8.7 | 0.00 | 0.00 | 0.00 | 50 | 1014.5 |
| 20260502151854 | 49 | 68 | 0.0 | 1.7 | 0.00 | 0.00 | 0.00 | 56 | 1014.6 |
| 20260502151354 | 49 | 24 | 2.6 | 5.2 | 0.00 | 0.00 | 0.00 | 59 | 1014.5 |
| 20260502150853 | 48 | 313 | 0.9 | 1.7 | 0.00 | 0.00 | 0.00 | 59 | 1015.0 |
| 20260502150353 | 47 | 294 | 3.5 | 5.2 | 0.00 | 0.00 | 0.00 | 58 | 1015.0 |
| 20260502130344 | 44 | 57 | 2.6 | 3.5 | 0.00 | 0.00 | 0.00 | 64 | 1015.0 |
| 20260502123342 | 44 | 315 | 2.6 | 5.2 | 0.00 | 0.00 | 0.00 | 66 | 1014.8 |
| 20260502122842 | 44 | 355 | 1.7 | 1.7 | 0.00 | 0.00 | 0.00 | 66 | 1014.9 |
| 20260502122331 | 43 | 336 | 0.9 | 1.7 | 0.00 | 0.00 | 0.00 | 65 | 1014.9 |
| 20260502121831 | 43 | 317 | 0.9 | 1.7 | 0.00 | 0.00 | 0.00 | 66 | 1014.9 |
| 20260502121341 | 43 | 28 | 0.9 | 1.7 | 0.00 | 0.00 | 0.00 | 66 | 1015.0 |
| 20260502120830 | 43 | 289 | 2.6 | 5.2 | 0.00 | 0.00 | 0.00 | 65 | 1015.1 |
| 20260502120330 | 43 | 288 | 0.9 | 1.7 | 0.00 | 0.00 | 0.00 | 66 | 1015.1 |
| 20260502115840 | 43 | 326 | 1.7 | 4.3 | 0.00 | 0.00 | 0.00 | 67 | 1015.0 |
| 20260502115339 | 43 | 301 | 2.6 | 5.2 | 0.00 | 0.00 | 0.00 | 67 | 1015.0 |
| 20260502114839 | 43 | 300 | 3.5 | 6.1 | 0.00 | 0.00 | 0.00 | 67 | 1015.1 |
| 20260502114328 | 43 | 2 | 1.7 | 1.7 | 0.00 | 0.00 | 0.00 | 67 | 1015.0 |
| 20260502113828 | 43 | 336 | 0.0 | 0.9 | 0.00 | 0.00 | 0.00 | 68 | 1014.9 |
| 20260502113338 | 43 | 277 | 1.7 | 2.6 | 0.00 | 0.00 | 0.00 | 66 | 1014.9 |
| 20260502112837 | 43 | 315 | 0.9 | 1.7 | 0.00 | 0.00 | 0.00 | 65 | 1014.8 |
| 20260502112337 | 43 | 20 | 1.7 | 1.7 | 0.00 | 0.00 | 0.00 | 65 | 1014.8 |
| 20260502111840 | 43 | 291 | 0.9 | 2.6 | 0.00 | 0.00 | 0.00 | 65 | 1014.6 |
| 20260502111327 | 43 | 314 | 1.7 | 5.2 | 0.00 | 0.00 | 0.00 | 64 | 1014.7 |
| 20260502110836 | 43 | 317 | 3.5 | 4.3 | 0.00 | 0.00 | 0.00 | 63 | 1014.5 |
| 20260502110336 | 43 | 309 | 3.5 | 7.0 | 0.00 | 0.00 | 0.00 | 63 | 1014.5 |
| 20260502105826 | 43 | 299 | 3.5 | 5.2 | 0.00 | 0.00 | 0.00 | 63 | 1014.6 |
| 20260502105335 | 43 | 295 | 1.7 | 1.7 | 0.00 | 0.00 | 0.00 | 62 | 1014.6 |
| 20260502104825 | 42 | 296 | 2.6 | 2.6 | 0.00 | 0.00 | 0.00 | 63 | 1014.6 |
| 20260502104324 | 43 | 324 | 1.7 | 2.6 | 0.00 | 0.00 | 0.00 | 64 | 1014.6 |
| 20260502103834 | 43 | 296 | 2.6 | 3.5 | 0.00 | 0.00 | 0.00 | 64 | 1014.5 |
| 20260502103323 | 43 | 37 | 0.9 | 1.7 | 0.00 | 0.00 | 0.00 | 63 | 1014.6 |
| 20260502102833 | 43 | 122 | 0.9 | 0.9 | 0.00 | 0.00 | 0.00 | 62 | 1014.7 |
| 20260502102333 | 43 | 348 | 0.9 | 2.6 | 0.00 | 0.00 | 0.00 | 61 | 1014.8 |
| 20260502101832 | 43 | 309 | 0.9 | 1.7 | 0.00 | 0.00 | 0.00 | 60 | 1014.8 |
| 20260502101332 | 44 | 53 | 0.9 | 1.7 | 0.00 | 0.00 | 0.00 | 59 | 1014.8 |
| 20260502100832 | 44 | 0 | 0.9 | 1.7 | 0.00 | 0.00 | 0.00 | 59 | 1014.9 |
| 20260502100331 | 44 | 323 | 1.7 | 1.7 | 0.00 | 0.00 | 0.00 | 59 | 1014.9 |
| 20260502091328 | 45 | 304 | 3.5 | 6.1 | 0.00 | 0.00 | 0.00 | 59 | 1014.8 |
| 20260502090827 | 45 | 308 | 0.9 | 1.7 | 0.00 | 0.00 | 0.00 | 59 | 1015.0 |
| 20260502090327 | 46 | 337 | 1.7 | 2.6 | 0.00 | 0.00 | 0.00 | 59 | 1014.9 |
| 20260502071318 | 48 | 28 | 1.7 | 3.5 | 0.00 | 0.00 | 0.00 | 75 | 1014.4 |
| 20260502070818 | 48 | 45 | 2.6 | 3.5 | 0.00 | 0.00 | 0.00 | 75 | 1014.4 |
| 20260502070308 | 48 | 66 | 1.7 | 2.6 | 0.00 | 0.00 | 0.00 | 74 | 1014.4 |
| 20260502065807 | 48 | 0 | 0.9 | 1.7 | 0.00 | 0.00 | 0.00 | 74 | 1014.5 |
| 20260502065317 | 48 | 309 | 0.9 | 6.1 | 0.00 | 0.00 | 0.00 | 74 | 1014.4 |
| 20260502064806 | 48 | 20 | 0.9 | 3.5 | 0.00 | 0.00 | 0.00 | 74 | 1014.6 |
| 20260502064316 | 48 | 297 | 1.7 | 3.5 | 0.00 | 0.00 | 0.00 | 74 | 1014.6 |
| 20260502063806 | 48 | 55 | 1.7 | 3.5 | 0.00 | 0.00 | 0.00 | 74 | 1014.6 |
| 20260502063315 | 48 | 329 | 2.6 | 7.0 | 0.00 | 0.00 | 0.00 | 73 | 1014.7 |
| 20260502062805 | 48 | 290 | 0.9 | 2.6 | 0.00 | 0.00 | 0.00 | 74 | 1014.6 |
| 20260502062315 | 48 | 324 | 0.9 | 1.7 | 0.00 | 0.00 | 0.00 | 74 | 1014.8 |
| 20260502061814 | 48 | 316 | 1.7 | 3.5 | 0.00 | 0.00 | 0.00 | 74 | 1014.9 |
| 20260502061314 | 48 | 326 | 0.9 | 2.6 | 0.00 | 0.00 | 0.00 | 74 | 1014.8 |
| 20260502060804 | 48 | 330 | 1.7 | 2.6 | 0.00 | 0.00 | 0.00 | 74 | 1014.9 |
| 20260502060313 | 48 | 332 | 0.9 | 3.5 | 0.00 | 0.00 | 0.00 | 73 | 1014.9 |
| 20260502055803 | 48 | 6 | 0.9 | 2.6 | 0.00 | 0.00 | 0.00 | 73 | 1014.9 |
| 20260502055305 | 48 | 330 | 0.9 | 1.7 | 0.00 | 0.00 | 0.00 | 73 | 1014.9 |
| 20260502054812 | 48 | 88 | 0.0 | 0.9 | 0.00 | 0.00 | 0.00 | 73 | 1015.0 |
| 20260502054312 | 48 | 12 | 1.7 | 2.6 | 0.00 | 0.00 | 0.00 | 73 | 1015.1 |
| 20260502053812 | 48 | 21 | 1.7 | 1.7 | 0.00 | 0.00 | 0.00 | 73 | 1015.1 |
| 20260502053311 | 48 | 316 | 0.0 | 0.9 | 0.00 | 0.00 | 0.00 | 73 | 1015.0 |
| 20260502052801 | 48 | 35 | 0.9 | 2.6 | 0.00 | 0.00 | 0.00 | 72 | 1014.8 |
| 20260502052311 | 49 | 15 | 3.5 | 5.2 | 0.00 | 0.00 | 0.00 | 71 | 1014.8 |
| 20260502051811 | 49 | 52 | 3.5 | 5.2 | 0.00 | 0.00 | 0.00 | 71 | 1014.7 |
| 20260502051300 | 49 | 21 | 1.7 | 2.6 | 0.00 | 0.00 | 0.00 | 72 | 1014.9 |
| 20260502050800 | 49 | 351 | 0.9 | 3.5 | 0.00 | 0.00 | 0.00 | 72 | 1014.8 |
| 20260502050309 | 49 | 46 | 3.5 | 5.2 | 0.00 | 0.00 | 0.00 | 72 | 1014.8 |
| 20260502045809 | 49 | 352 | 3.5 | 5.2 | 0.00 | 0.00 | 0.00 | 71 | 1014.8 |
| 20260502045258 | 49 | 43 | 2.6 | 4.3 | 0.00 | 0.00 | 0.00 | 71 | 1014.7 |
| 20260502044808 | 49 | 51 | 2.6 | 5.2 | 0.00 | 0.00 | 0.00 | 72 | 1014.8 |
| 20260502044308 | 49 | 14 | 0.9 | 1.7 | 0.00 | 0.00 | 0.00 | 71 | 1014.8 |
| 20260502043807 | 49 | 5 | 1.7 | 3.5 | 0.00 | 0.00 | 0.00 | 71 | 1014.8 |
| 20260502043307 | 50 | 49 | 0.9 | 1.7 | 0.00 | 0.00 | 0.00 | 71 | 1014.8 |
| 20260502042806 | 50 | 347 | 1.7 | 4.3 | 0.00 | 0.00 | 0.00 | 71 | 1014.9 |
| 20260502042306 | 50 | 33 | 1.7 | 2.6 | 0.00 | 0.00 | 0.00 | 71 | 1014.9 |
| 20260502041806 | 50 | 344 | 0.9 | 1.7 | 0.00 | 0.00 | 0.00 | 71 | 1014.8 |
| 20260502041305 | 51 | 40 | 1.7 | 3.5 | 0.00 | 0.00 | 0.00 | 71 | 1014.8 |
| 20260502040805 | 51 | 32 | 1.7 | 2.6 | 0.00 | 0.00 | 0.00 | 70 | 1014.7 |
| 20260502040254 | 51 | 36 | 1.7 | 3.5 | 0.00 | 0.00 | 0.00 | 71 | 1014.7 |
| 20260502035804 | 51 | 248 | 0.9 | 1.7 | 0.00 | 0.00 | 0.00 | 72 | 1014.7 |
| 20260502035306 | 51 | 42 | 1.7 | 3.5 | 0.00 | 0.00 | 0.00 | 72 | 1014.7 |
| 20260502034803 | 51 | 338 | 0.9 | 3.5 | 0.00 | 0.00 | 0.00 | 72 | 1014.7 |
| 20260502034303 | 51 | 343 | 0.0 | 1.7 | 0.00 | 0.00 | 0.00 | 73 | 1014.8 |
| 20260502033802 | 51 | 301 | 0.9 | 2.6 | 0.00 | 0.00 | 0.00 | 72 | 1014.8 |
| 20260502033302 | 51 | 60 | 2.6 | 3.5 | 0.00 | 0.00 | 0.00 | 72 | 1014.6 |
| 20260502032802 | 51 | 37 | 1.7 | 2.6 | 0.00 | 0.00 | 0.00 | 71 | 1014.7 |
| 20260502032305 | 51 | 49 | 0.9 | 1.7 | 0.00 | 0.00 | 0.00 | 71 | 1014.8 |
| 20260502031801 | 51 | 301 | 2.6 | 3.5 | 0.00 | 0.00 | 0.00 | 71 | 1014.7 |
| 20260502031301 | 51 | 304 | 3.5 | 7.0 | 0.00 | 0.00 | 0.00 | 71 | 1014.7 |
| 20260502030800 | 51 | 310 | 1.7 | 2.6 | 0.00 | 0.00 | 0.00 | 71 | 1014.6 |
| 20260502030300 | 51 | 3 | 1.7 | 2.6 | 0.00 | 0.00 | 0.00 | 72 | 1014.7 |
| 20260502025800 | 52 | 301 | 2.6 | 3.5 | 0.00 | 0.00 | 0.00 | 72 | 1014.7 |
| 20260502025259 | 52 | 307 | 0.9 | 2.6 | 0.00 | 0.00 | 0.00 | 72 | 1014.6 |
| 20260502024750 | 52 | 48 | 0.9 | 2.6 | 0.00 | 0.00 | 0.00 | 72 | 1014.6 |
| 20260502024250 | 52 | 306 | 1.7 | 4.3 | 0.00 | 0.00 | 0.00 | 71 | 1014.5 |
| 20260502023758 | 52 | 26 | 3.5 | 6.1 | 0.00 | 0.00 | 0.00 | 71 | 1014.5 |
| 20260502023249 | 52 | 323 | 1.7 | 3.5 | 0.00 | 0.00 | 0.00 | 71 | 1014.5 |
| 20260502022748 | 52 | 301 | 1.7 | 3.5 | 0.00 | 0.00 | 0.00 | 70 | 1014.5 |
| 20260502022258 | 53 | 29 | 0.9 | 3.5 | 0.00 | 0.00 | 0.00 | 69 | 1014.4 |
| 20260502021736 | 53 | 25 | 1.7 | 3.5 | 0.00 | 0.00 | 0.00 | 69 | 1014.3 |
| 20260502021236 | 53 | 340 | 2.6 | 4.3 | 0.00 | 0.00 | 0.00 | 68 | 1014.3 |
| 20260502020736 | 53 | 19 | 2.6 | 4.3 | 0.00 | 0.00 | 0.00 | 67 | 1013.9 |
| 20260502020235 | 54 | 355 | 1.7 | 4.3 | 0.00 | 0.00 | 0.00 | 67 | 1013.9 |
| 20260502015735 | 54 | 222 | 0.9 | 1.7 | 0.00 | 0.00 | 0.00 | 65 | 1013.7 |
| 20260502015234 | 54 | 23 | 4.3 | 7.0 | 0.00 | 0.00 | 0.00 | 64 | 1013.4 |
| 20260502014734 | 55 | 45 | 0.9 | 2.6 | 0.00 | 0.00 | 0.00 | 63 | 1013.2 |
| 20260502014234 | 55 | 28 | 3.5 | 6.1 | 0.00 | 0.00 | 0.00 | 62 | 1013.1 |
| 20260502013733 | 56 | 17 | 1.7 | 4.3 | 0.00 | 0.00 | 0.00 | 61 | 1013.0 |
| 20260502013233 | 56 | 350 | 1.7 | 4.3 | 0.00 | 0.00 | 0.00 | 59 | 1013.0 |
| 20260502012733 | 57 | 4 | 2.6 | 5.2 | 0.00 | 0.00 | 0.00 | 57 | 1012.9 |
| 20260502012232 | 58 | 31 | 1.7 | 3.5 | 0.00 | 0.00 | 0.00 | 54 | 1012.7 |
| 20260502011732 | 59 | 331 | 1.7 | 2.6 | 0.00 | 0.00 | 0.00 | 49 | 1012.7 |
| 20260502011232 | 59 | 313 | 0.9 | 1.7 | 0.00 | 0.00 | 0.00 | 48 | 1012.4 |
| 20260502010731 | 59 | 325 | 0.9 | 1.7 | 0.00 | 0.00 | 0.00 | 46 | 1012.2 |
| 20260502010231 | 59 | 248 | 0.9 | 1.7 | 0.00 | 0.00 | 0.00 | 47 | 1012.1 |
| 20260502005731 | 59 | 220 | 0.9 | 0.9 | 0.00 | 0.00 | 0.00 | 47 | 1012.1 |
| 20260502005230 | 59 | 240 | 0.0 | 1.7 | 0.00 | 0.00 | 0.00 | 50 | 1012.0 |
| 20260502004730 | 60 | 204 | 0.9 | 1.7 | 0.00 | 0.00 | 0.00 | 49 | 1011.9 |
| 20260502004230 | 60 | 306 | 0.9 | 1.7 | 0.00 | 0.00 | 0.00 | 46 | 1011.8 |
| 20260502003729 | 60 | 344 | 0.0 | 0.9 | 0.00 | 0.00 | 0.00 | 46 | 1011.7 |
| 20260502003229 | 61 | 297 | 0.9 | 1.7 | 0.00 | 0.00 | 0.00 | 43 | 1011.6 |
| 20260502002729 | 61 | 259 | 0.9 | 1.7 | 0.00 | 0.00 | 0.00 | 43 | 1011.5 |
| 20260502002228 | 61 | 246 | 0.9 | 1.7 | 0.00 | 0.00 | 0.00 | 43 | 1011.5 |
| 20260502001728 | 61 | 234 | 0.9 | 1.7 | 0.00 | 0.00 | 0.00 | 43 | 1011.4 |
| 20260502001228 | 62 | 220 | 0.9 | 1.7 | 0.00 | 0.00 | 0.00 | 42 | 1011.4 |
| 20260502000727 | 62 | 226 | 1.7 | 2.6 | 0.00 | 0.00 | 0.00 | 41 | 1011.3 |
| 20260502000227 | 62 | 270 | 1.7 | 1.7 | 0.00 | 0.00 | 0.00 | 41 | 1011.2 |
| 20260501235727 | 62 | 310 | 2.6 | 4.3 | 0.00 | 0.00 | 0.00 | 40 | 1011.2 |
| 20260501235226 | 63 | 294 | 1.7 | 2.6 | 0.00 | 0.00 | 0.00 | 40 | 1011.1 |
| 20260501234726 | 63 | 276 | 2.6 | 4.3 | 0.00 | 0.00 | 0.00 | 39 | 1011.0 |
| 20260501234226 | 63 | 267 | 3.5 | 5.2 | 0.00 | 0.00 | 0.00 | 39 | 1010.7 |
| 20260501233725 | 63 | 272 | 1.7 | 2.6 | 0.00 | 0.00 | 0.00 | 39 | 1010.7 |
| 20260501233225 | 64 | 246 | 0.0 | 0.9 | 0.00 | 0.00 | 0.00 | 39 | 1010.7 |
| 20260501232725 | 64 | 299 | 1.7 | 3.5 | 0.00 | 0.00 | 0.00 | 38 | 1010.7 |
| 20260501232224 | 64 | 282 | 2.6 | 4.3 | 0.00 | 0.00 | 0.00 | 37 | 1010.6 |
| 20260501231724 | 65 | 311 | 3.5 | 5.2 | 0.00 | 0.00 | 0.00 | 37 | 1010.6 |
| 20260501231223 | 65 | 286 | 1.7 | 4.3 | 0.00 | 0.00 | 0.00 | 37 | 1010.6 |
| 20260501230723 | 65 | 279 | 2.6 | 3.5 | 0.00 | 0.00 | 0.00 | 36 | 1010.6 |
| 20260501230223 | 66 | 275 | 3.5 | 5.2 | 0.00 | 0.00 | 0.00 | 35 | 1010.6 |
| 20260501225722 | 66 | 246 | 3.5 | 5.2 | 0.00 | 0.00 | 0.00 | 35 | 1010.5 |
| 20260501225222 | 66 | 260 | 3.5 | 4.3 | 0.00 | 0.00 | 0.00 | 35 | 1010.5 |
| 20260501224722 | 66 | 296 | 3.5 | 7.8 | 0.00 | 0.00 | 0.00 | 35 | 1010.5 |
| 20260501224221 | 66 | 262 | 3.5 | 6.1 | 0.00 | 0.00 | 0.00 | 36 | 1010.4 |
| 20260501223721 | 66 | 214 | 3.5 | 5.2 | 0.00 | 0.00 | 0.00 | 36 | 1010.5 |
| 20260501223221 | 67 | 234 | 4.3 | 7.0 | 0.00 | 0.00 | 0.00 | 36 | 1010.4 |
| 20260501222720 | 67 | 272 | 3.5 | 5.2 | 0.00 | 0.00 | 0.00 | 34 | 1010.5 |
| 20260501222220 | 67 | 255 | 2.6 | 5.2 | 0.00 | 0.00 | 0.00 | 35 | 1010.5 |
| 20260501221720 | 67 | 281 | 2.6 | 4.3 | 0.00 | 0.00 | 0.00 | 36 | 1010.6 |
| 20260501221219 | 67 | 249 | 5.2 | 7.0 | 0.00 | 0.00 | 0.00 | 36 | 1010.6 |
| 20260501220719 | 68 | 211 | 0.9 | 2.6 | 0.00 | 0.00 | 0.00 | 36 | 1010.5 |
| 20260501220219 | 67 | 226 | 2.6 | 4.3 | 0.00 | 0.00 | 0.00 | 36 | 1010.5 |
| 20260501215719 | 66 | 200 | 3.5 | 5.2 | 0.00 | 0.00 | 0.00 | 42 | 1010.6 |
| 20260501215218 | 65 | 217 | 4.3 | 6.1 | 0.00 | 0.00 | 0.00 | 47 | 1010.7 |
| 20260501214718 | 66 | 198 | 5.2 | 10.4 | 0.00 | 0.00 | 0.00 | 46 | 1010.6 |
| 20260501214218 | 65 | 186 | 1.7 | 4.3 | 0.00 | 0.00 | 0.00 | 47 | 1010.3 |
| 20260501213717 | 64 | 174 | 2.6 | 4.3 | 0.00 | 0.00 | 0.00 | 48 | 1010.6 |
| 20260501213217 | 64 | 186 | 2.6 | 7.0 | 0.00 | 0.00 | 0.00 | 48 | 1010.8 |
| 20260501212717 | 64 | 179 | 0.9 | 2.6 | 0.00 | 0.00 | 0.00 | 48 | 1010.7 |
| 20260501212217 | 65 | 179 | 5.2 | 7.0 | 0.00 | 0.00 | 0.00 | 46 | 1010.8 |
| 20260501211716 | 65 | 188 | 6.1 | 9.6 | 0.00 | 0.00 | 0.00 | 46 | 1010.6 |
| 20260501211216 | 65 | 175 | 1.7 | 3.5 | 0.00 | 0.00 | 0.00 | 45 | 1011.1 |
| 20260501210716 | 65 | 222 | 3.5 | 7.0 | 0.00 | 0.00 | 0.00 | 44 | 1011.0 |